Regional Weather Roundup
Issued by NWS

Home | Current Version | Previous Version | Graphics & Text | Print | Product List | Glossary On
Versions: 1 2 3 4 5 6 7 8 9 10 11 12 13 14 15 16 17 18 19 20 21 22 23 24 25 26 27 28 29 30 31 32 33 34 35 36 37 38 39 40 41 42 43 44 45 46 47 48 49 50
000
ASUS43 KTOP 280108
RWRKS

WEATHER ROUNDUP FOR KANSAS
NATIONAL WEATHER SERVICE GOODLAND KS
800 PM CDT TUE JUN 27 2017

NOTE:  "FAIR" INDICATES FEW OR NO CLOUDS BELOW 12,000 FEET WITH NO
SIGNIFICANT WEATHER AND/OR OBSTRUCTIONS TO VISIBILITY.

KSZ001>006-013>018-027>032-041>047-280200-
NORTHWEST KANSAS

CITY           SKY/WX    TMP DP  RH WIND       PRES   REMARKS
GOODLAND       TSTM      71  56  58 S17G33    29.73F
HAYS           CLOUDY    88  64  44 S22G32    29.70F
HILL CITY      CLOUDY    90  57  32 S15       29.67F
RUSSELL        CLOUDY    90  62  39 S24G31    29.71F
$$

KSZ061>065-074>080-084>089-280200-
SOUTHWEST KANSAS

CITY           SKY/WX    TMP DP  RH WIND       PRES   REMARKS
DODGE CITY     CLOUDY    88  56  33 S21G32    29.78R
ELKHART          N/A     87  52  30 S22         N/A
GARDEN CITY    CLOUDY    89  55  31 S20G30    29.74F
GREAT BEND     CLOUDY    88  64  44 S23G30    29.75F
LIBERAL        SUNNY     90  57  32 S24G31    29.79F
$$

KSZ066>073-081>083-090>101-280200-
SOUTHEAST KANSAS

CITY           SKY/WX    TMP DP  RH WIND       PRES   REMARKS
CHANUTE        CLEAR     83  64  52 S17       29.90F
COFFEYVILLE    CLEAR     83  63  50 S13       29.91S
HUTCHINSON     CLEAR     89  62  40 S22G29    29.79F
MEDICINE LODGE   N/A     89  59  36 S15G23    29.79F
NEWTON         CLEAR     83  68  60 S20G31    29.83F
PARSONS        CLEAR     83  63  50 S8        29.92F
WICHITA INTL   PTCLDY    85  68  56 SE20      29.82F
WICHITA JABRA  CLEAR     83  67  58 S17       29.83F
WICHITA MCCONL CLEAR     85  66  53 S17G26    29.84S
WINFIELD       CLEAR     83  67  58 S18G25    29.87S
$$

KSZ007>012-019>026-033>040-048>060-102>105-280200-
NORTHEAST KANSAS

CITY           SKY/WX    TMP DP  RH WIND       PRES   REMARKS
CONCORDIA      CLEAR     84  71  65 S18G35    29.74F
EMPORIA        CLEAR     81  65  58 S17G24    29.86F
LAWRENCE       CLEAR     79  68  69 SE15G22   29.88F
MANHATTAN      CLEAR     83  68  60 S15G26    29.80F
OLATHE IND     MOCLDY    79  66  64 SE15G21   29.91F
OLATHE EXE     PTCLDY    77  67  71 S14       29.91F
SALINA         CLEAR     90  67  46 S25G31    29.75F
TOPEKA BILLARD CLEAR     80  69  69 SE16      29.85F
TOPEKA FORBES  CLEAR     81  68  64 SE15G21   29.85F
$$



USA.gov is the U.S. government's official web portal to all federal, state and local government web resources and services.